Sections

Recent Chat Log

Time Position Name Message
Apr 21, 2018 1:38:30 am 58  jonezy okay ill pick one
Apr 21, 2018 1:38:15 am 58  jonezy stuck
Apr 21, 2018 1:37:27 am 58  jonezy thaythat shits so annoying
Apr 21, 2018 1:37:14 am 58  jonezy grrr
Apr 21, 2018 1:35:19 am 58  jonezy LMAO
Apr 21, 2018 1:35:10 am 58  jonezy haahah
Apr 21, 2018 1:34:24 am 58  jonezy what
Apr 21, 2018 1:33:02 am 58  jonezy im fucking stuck
Apr 21, 2018 1:28:48 am 58  jonezy huh
Apr 21, 2018 1:28:42 am 58  jonezy lol
Apr 21, 2018 1:27:49 am 58  jonezy conner is fucking dead
Apr 21, 2018 1:27:37 am 58  jonezy oh fuck
Apr 21, 2018 1:27:19 am 58  jonezy love this map brpo
Apr 20, 2018 11:02:44 pm 11  -=312th=- QPSK nice job
Apr 20, 2018 11:02:09 pm 11  -=312th=- QPSK go to where the number shows
Apr 20, 2018 11:01:35 pm 11  -=312th=- QPSK go back to where we were
Apr 20, 2018 11:01:18 pm 11  -=312th=- QPSK get ne wsupplies
Apr 20, 2018 11:01:09 pm 11  -=312th=- QPSK you ahve to go back to A
Apr 20, 2018 8:33:09 pm 42  Kinetic time to work on the Jeep. later dudes
Apr 20, 2018 8:30:15 pm 74  ZeroShitsGiven behind
Apr 20, 2018 8:26:53 pm 22  XVII thats my boy!
Apr 20, 2018 8:26:21 pm 42  Kinetic yeah i got that
Apr 20, 2018 8:26:09 pm 42  Kinetic wtf
Apr 20, 2018 8:15:15 pm 74  ZeroShitsGiven cana;
Apr 20, 2018 8:15:08 pm 74  ZeroShitsGiven dry anal;
Apr 20, 2018 8:14:47 pm 7  dware GG
Apr 20, 2018 8:14:42 pm 42  Kinetic gg
Apr 20, 2018 8:00:24 pm 42  Kinetic up top
Apr 20, 2018 7:56:41 pm 42  Kinetic again with the sniper molly's.....
Apr 20, 2018 7:53:53 pm 42  Kinetic how does one die from fire while airborne.....
Apr 20, 2018 7:42:31 pm 42  Kinetic good work guys
Apr 20, 2018 7:42:28 pm 143  True Caliber gg
Apr 20, 2018 7:42:14 pm 42  Kinetic gg
Apr 20, 2018 7:42:00 pm 42  Kinetic truck
Apr 20, 2018 7:31:20 pm 42  Kinetic keep an eye on those stairs boys
Apr 20, 2018 7:23:16 pm 7  dware GG
Apr 20, 2018 7:23:12 pm 42  Kinetic gg
Apr 20, 2018 7:23:09 pm 199  WokeUpErect sweet
Apr 20, 2018 7:23:08 pm 36  -=312th=- MikeyLikesIt gg
Apr 20, 2018 7:23:07 pm 199  WokeUpErect yhahaha
Apr 20, 2018 7:22:48 pm 42  Kinetic atta boy twigz
Apr 20, 2018 7:22:47 pm 199  WokeUpErect go twigz hahaha
Apr 20, 2018 7:22:10 pm 42  Kinetic thats what i get for pulling security too long :/
Apr 20, 2018 7:21:52 pm 22  XVII lol
Apr 20, 2018 7:21:50 pm 42  Kinetic yup
Apr 20, 2018 7:21:45 pm 199  WokeUpErect fack
Apr 20, 2018 7:19:00 pm 199  WokeUpErect that~!
Apr 20, 2018 7:18:00 pm 199  WokeUpErect whats that awful sound
Apr 20, 2018 7:08:10 pm 7  dware gg
Apr 20, 2018 7:08:01 pm 199  WokeUpErect GG
Apr 20, 2018 7:07:59 pm 36  -=312th=- MikeyLikesIt gg
Apr 20, 2018 7:03:01 pm 199  WokeUpErect well done XVII
Apr 20, 2018 6:51:58 pm 199  WokeUpErect hehe
Apr 20, 2018 6:51:43 pm 199  WokeUpErect oops
Apr 20, 2018 6:49:30 pm 199  WokeUpErect just u
Apr 20, 2018 6:47:56 pm 7  dware gg
Apr 20, 2018 6:47:45 pm 8  Xenovore gg
Apr 20, 2018 6:39:26 pm 8  Xenovore watch for snipers behind
Apr 20, 2018 6:38:53 pm 8  Xenovore nj
Apr 20, 2018 6:29:33 pm 7  dware GG
Apr 20, 2018 6:29:26 pm 8  Xenovore gg
Apr 20, 2018 6:16:20 pm 8  Xenovore sup

Admin Options: